AUA26L LOWW-EDDS

Flight info

Callsign AUA26L
Flight time 0h 56m
Altitude 30000
Route LUGEM DCT KIRDI DCT EBEDA L173 MAH/N0367F240 L173 DODIL T127 TEKSI TEKSI5A
Aircraft A320/M-SDE3FGHIRWY/LB1

Departure

Time 2026-04-22 20:56
Airport Vienna International Airport (LOWW)

Arrival

Time 2026-04-22 21:53
Airport Stuttgart Airport (EDDS)
Time Latitude Longitude Altitude Speed Heading
2026-04-22 20:07 48.11709 16.56790 618 ft 0 kts 25°
2026-04-22 20:40 48.11696 16.56781 612 ft 4 kts 26°
2026-04-22 20:40 48.11672 16.56762 614 ft 4 kts 32°
2026-04-22 20:41 48.11651 16.56738 622 ft 4 kts 57°
2026-04-22 20:41 48.11646 16.56711 622 ft 1 kts 116°
2026-04-22 20:41 48.11647 16.56711 609 ft 0 kts 116°
2026-04-22 20:45 48.11639 16.56734 609 ft 6 kts 116°
2026-04-22 20:46 48.11605 16.56839 619 ft 8 kts 116°
2026-04-22 20:46 48.11583 16.56908 609 ft 7 kts 116°
2026-04-22 20:46 48.11552 16.57004 616 ft 12 kts 116°
2026-04-22 20:47 48.11519 16.57107 621 ft 10 kts 116°
2026-04-22 20:47 48.11490 16.57196 614 ft 9 kts 116°
2026-04-22 20:47 48.11463 16.57278 609 ft 8 kts 116°
2026-04-22 20:47 48.11438 16.57356 622 ft 8 kts 118°
2026-04-22 20:48 48.11380 16.57379 613 ft 13 kts 194°
2026-04-22 20:48 48.11299 16.57321 621 ft 12 kts 206°
2026-04-22 20:48 48.11229 16.57270 609 ft 10 kts 206°
2026-04-22 20:48 48.11189 16.57241 615 ft 9 kts 206°
2026-04-22 20:49 48.11167 16.57225 619 ft 0 kts 206°
2026-04-22 20:54 48.11157 16.57218 609 ft 8 kts 206°
2026-04-22 20:54 48.11076 16.57153 609 ft 13 kts 220°
2026-04-22 20:54 48.11063 16.57073 614 ft 0 kts 292°
2026-04-22 20:55 48.11129 16.56867 615 ft 59 kts 296°
2026-04-22 20:56 48.11412 16.56003 611 ft 123 kts 296°
2026-04-22 20:56 48.11867 16.54637 719 ft 158 kts 298°
2026-04-22 20:56 48.12226 16.53161 1413 ft 155 kts 274°
2026-04-22 20:56 48.12072 16.51537 2034 ft 160 kts 262°
2026-04-22 20:57 48.11865 16.49895 2615 ft 164 kts 264°
2026-04-22 20:57 48.11664 16.48121 2981 ft 182 kts 266°
2026-04-22 20:57 48.11412 16.46164 3352 ft 202 kts 262°
2026-04-22 20:57 48.11047 16.44030 3699 ft 220 kts 259°
2026-04-22 20:58 48.10612 16.41708 4034 ft 244 kts 259°
2026-04-22 20:58 48.10139 16.39142 4532 ft 263 kts 259°
2026-04-22 20:58 48.09788 16.36441 5354 ft 264 kts 272°
2026-04-22 20:58 48.09850 16.33695 6210 ft 266 kts 277°
2026-04-22 20:59 48.09925 16.30902 7057 ft 270 kts 276°
2026-04-22 20:59 48.09981 16.28075 7907 ft 274 kts 276°
2026-04-22 20:59 48.10027 16.25216 8730 ft 277 kts 275°
2026-04-22 20:59 48.10069 16.22353 9537 ft 280 kts 275°
2026-04-22 21:00 48.10195 16.19431 10259 ft 284 kts 281°
2026-04-22 21:00 48.10469 16.16372 10550 ft 308 kts 282°
2026-04-22 21:00 48.10771 16.13111 10979 ft 323 kts 282°
2026-04-22 21:00 48.11082 16.09755 11655 ft 329 kts 281°
2026-04-22 21:01 48.11394 16.06340 12344 ft 333 kts 281°
2026-04-22 21:01 48.11706 16.02881 13020 ft 338 kts 281°
2026-04-22 21:01 48.12017 15.99372 13697 ft 342 kts 281°
2026-04-22 21:01 48.12330 15.95818 14337 ft 346 kts 281°
2026-04-22 21:02 48.12646 15.92218 14975 ft 350 kts 281°
2026-04-22 21:02 48.12967 15.88576 15590 ft 355 kts 281°
2026-04-22 21:02 48.13293 15.84892 16199 ft 359 kts 282°
2026-04-22 21:02 48.13626 15.81162 16796 ft 363 kts 282°
2026-04-22 21:03 48.13958 15.77401 17388 ft 367 kts 282°
2026-04-22 21:03 48.14293 15.73591 17955 ft 371 kts 282°
2026-04-22 21:03 48.14630 15.69735 18512 ft 375 kts 282°
2026-04-22 21:03 48.14968 15.65842 19057 ft 379 kts 282°
2026-04-22 21:04 48.15307 15.61907 19614 ft 382 kts 281°
2026-04-22 21:04 48.15646 15.57931 20154 ft 386 kts 281°
2026-04-22 21:04 48.15988 15.53915 20686 ft 389 kts 281°
2026-04-22 21:04 48.16331 15.49878 21207 ft 393 kts 281°
2026-04-22 21:05 48.16671 15.45854 21717 ft 396 kts 281°
2026-04-22 21:05 48.17015 15.41746 22193 ft 399 kts 281°
2026-04-22 21:05 48.17273 15.37577 22679 ft 405 kts 276°
2026-04-22 21:05 48.17379 15.33335 23159 ft 408 kts 276°
2026-04-22 21:06 48.17481 15.29071 23621 ft 412 kts 275°
2026-04-22 21:06 48.17581 15.24763 24063 ft 415 kts 275°
2026-04-22 21:06 48.17683 15.20425 24504 ft 418 kts 275°
2026-04-22 21:06 48.17783 15.16046 24903 ft 422 kts 276°
2026-04-22 21:07 48.17883 15.11659 25125 ft 431 kts 275°
2026-04-22 21:07 48.17987 15.07116 25306 ft 440 kts 275°
2026-04-22 21:07 48.18089 15.02504 25622 ft 445 kts 275°
2026-04-22 21:07 48.18188 14.97836 25972 ft 450 kts 275°
2026-04-22 21:08 48.18284 14.93134 26292 ft 454 kts 275°
2026-04-22 21:08 48.18380 14.88379 26623 ft 457 kts 274°
2026-04-22 21:08 48.18477 14.83597 26948 ft 461 kts 274°
2026-04-22 21:08 48.18575 14.78771 27270 ft 464 kts 274°
2026-04-22 21:09 48.18672 14.73904 27566 ft 467 kts 274°
2026-04-22 21:09 48.18767 14.69027 27870 ft 471 kts 274°
2026-04-22 21:09 48.18860 14.64111 28174 ft 474 kts 274°
2026-04-22 21:09 48.18946 14.59218 28455 ft 476 kts 274°
2026-04-22 21:10 48.19036 14.54227 28717 ft 480 kts 274°
2026-04-22 21:10 48.19125 14.49207 28993 ft 483 kts 274°
2026-04-22 21:10 48.19215 14.44157 29259 ft 486 kts 274°
2026-04-22 21:10 48.19302 14.39074 29511 ft 490 kts 273°
2026-04-22 21:11 48.19386 14.33951 29777 ft 492 kts 273°
2026-04-22 21:11 48.19465 14.28744 30038 ft 495 kts 273°
2026-04-22 21:11 48.19538 14.23572 30241 ft 498 kts 273°
2026-04-22 21:11 48.19606 14.18420 30297 ft 487 kts 273°
2026-04-22 21:12 48.19670 14.13479 30302 ft 475 kts 273°
2026-04-22 21:12 48.19737 14.08549 30303 ft 470 kts 273°
2026-04-22 21:12 48.19873 13.98765 30302 ft 469 kts 273°
2026-04-22 21:13 48.20001 13.88988 30300 ft 469 kts 273°
2026-04-22 21:13 48.20114 13.79207 30301 ft 469 kts 272°
2026-04-22 21:14 48.20212 13.69458 30301 ft 467 kts 272°
2026-04-22 21:14 48.20305 13.59725 30294 ft 467 kts 272°
2026-04-22 21:15 48.20397 13.49972 30300 ft 467 kts 272°
2026-04-22 21:15 48.20478 13.40251 30297 ft 466 kts 272°
2026-04-22 21:16 48.20548 13.30595 30300 ft 466 kts 272°
2026-04-22 21:16 48.20605 13.20828 30305 ft 466 kts 272°
2026-04-22 21:17 48.20659 13.11165 30312 ft 466 kts 272°
2026-04-22 21:17 48.20712 13.01449 30313 ft 466 kts 272°
2026-04-22 21:18 48.20748 12.91753 30318 ft 464 kts 272°
2026-04-22 21:18 48.20738 12.82091 30318 ft 464 kts 268°
2026-04-22 21:19 48.20136 12.72451 30316 ft 464 kts 265°
2026-04-22 21:19 48.19489 12.62824 30313 ft 464 kts 265°
2026-04-22 21:20 48.18834 12.53193 30309 ft 464 kts 265°
2026-04-22 21:20 48.18187 12.43567 30312 ft 462 kts 265°
2026-04-22 21:21 48.17540 12.34034 30307 ft 463 kts 265°
2026-04-22 21:21 48.16869 12.24439 30302 ft 463 kts 265°
2026-04-22 21:22 48.16196 12.14840 30296 ft 463 kts 268°
2026-04-22 21:22 48.16516 12.05282 30295 ft 459 kts 278°
2026-04-22 21:23 48.17146 11.95754 30289 ft 459 kts 278°
2026-04-22 21:23 48.17757 11.86218 30290 ft 459 kts 278°
2026-04-22 21:24 48.18840 11.76854 30282 ft 455 kts 288°
2026-04-22 21:24 48.20375 11.67654 30287 ft 455 kts 288°
2026-04-22 21:25 48.21885 11.58514 30292 ft 454 kts 287°
2026-04-22 21:25 48.22633 11.53942 30079 ft 447 kts 287°
2026-04-22 21:25 48.23367 11.49448 29824 ft 440 kts 287°
2026-04-22 21:26 48.24093 11.45001 29484 ft 436 kts 287°
2026-04-22 21:26 48.24814 11.40596 28989 ft 434 kts 287°
2026-04-22 21:26 48.25579 11.36227 28502 ft 430 kts 292°
2026-04-22 21:26 48.26727 11.32136 28046 ft 421 kts 303°
2026-04-22 21:27 48.28284 11.28475 27632 ft 410 kts 313°
2026-04-22 21:27 48.30156 11.25316 27226 ft 401 kts 320°
2026-04-22 21:27 48.32099 11.22331 26800 ft 398 kts 320°
2026-04-22 21:27 48.34020 11.19356 26385 ft 394 kts 319°
2026-04-22 21:28 48.35914 11.16407 25959 ft 391 kts 319°
2026-04-22 21:28 48.37793 11.13480 25527 ft 388 kts 319°
2026-04-22 21:28 48.39636 11.10610 25101 ft 384 kts 319°
2026-04-22 21:28 48.41489 11.07725 24656 ft 381 kts 319°
2026-04-22 21:29 48.43326 11.04867 24218 ft 378 kts 319°
2026-04-22 21:29 48.45146 11.02029 23777 ft 375 kts 319°
2026-04-22 21:29 48.46948 10.99213 23342 ft 372 kts 319°
2026-04-22 21:29 48.48740 10.96408 22893 ft 370 kts 319°
2026-04-22 21:30 48.50518 10.93620 22447 ft 367 kts 318°
2026-04-22 21:30 48.51687 10.91773 22160 ft 366 kts 318°
2026-04-22 21:30 48.53433 10.88993 21731 ft 363 kts 318°
2026-04-22 21:30 48.55159 10.86229 21303 ft 360 kts 317°
2026-04-22 21:31 48.56872 10.83475 20880 ft 358 kts 317°
2026-04-22 21:31 48.58568 10.80745 20460 ft 356 kts 317°
2026-04-22 21:31 48.60261 10.78030 20043 ft 353 kts 318°
2026-04-22 21:31 48.61941 10.75354 19632 ft 350 kts 318°
2026-04-22 21:32 48.63619 10.72696 19221 ft 348 kts 318°
2026-04-22 21:32 48.65282 10.70065 18815 ft 345 kts 318°
2026-04-22 21:32 48.66938 10.67442 18409 ft 343 kts 318°
2026-04-22 21:32 48.68583 10.64832 17995 ft 341 kts 318°
2026-04-22 21:33 48.70219 10.62229 17595 ft 340 kts 317°
2026-04-22 21:33 48.71651 10.59425 17188 ft 344 kts 303°
2026-04-22 21:33 48.72557 10.56064 16801 ft 348 kts 287°
2026-04-22 21:33 48.72821 10.52411 16403 ft 351 kts 270°
2026-04-22 21:34 48.72558 10.48731 16003 ft 351 kts 265°
2026-04-22 21:34 48.72251 10.45068 15603 ft 349 kts 265°
2026-04-22 21:34 48.71948 10.41428 15205 ft 348 kts 265°
2026-04-22 21:34 48.71648 10.37806 14809 ft 346 kts 265°
2026-04-22 21:35 48.71354 10.34206 14415 ft 344 kts 265°
2026-04-22 21:35 48.71061 10.30623 14021 ft 342 kts 265°
2026-04-22 21:35 48.70766 10.27052 13625 ft 340 kts 265°
2026-04-22 21:35 48.70472 10.23515 13258 ft 337 kts 265°
2026-04-22 21:36 48.70176 10.20018 13008 ft 330 kts 265°
2026-04-22 21:36 48.69885 10.16602 12749 ft 324 kts 265°
2026-04-22 21:36 48.69600 10.13240 12501 ft 318 kts 265°
2026-04-22 21:36 48.69319 10.09941 12242 ft 314 kts 265°
2026-04-22 21:37 48.69042 10.06687 12000 ft 311 kts 265°
2026-04-22 21:37 48.68831 10.03423 11748 ft 310 kts 268°
2026-04-22 21:37 48.68680 10.00178 11497 ft 308 kts 269°
2026-04-22 21:37 48.68552 9.96941 11243 ft 307 kts 269°
2026-04-22 21:38 48.68432 9.93720 10988 ft 306 kts 268°
2026-04-22 21:38 48.68306 9.90547 10744 ft 306 kts 268°
2026-04-22 21:38 48.68172 9.87341 10493 ft 304 kts 268°
2026-04-22 21:38 48.68032 9.84162 10243 ft 302 kts 267°
2026-04-22 21:39 48.67886 9.80993 9992 ft 301 kts 267°
2026-04-22 21:39 48.67736 9.77836 9741 ft 300 kts 267°
2026-04-22 21:39 48.67584 9.74692 9488 ft 299 kts 266°
2026-04-22 21:39 48.67432 9.71554 9233 ft 298 kts 266°
2026-04-22 21:40 48.67279 9.68429 8986 ft 297 kts 266°
2026-04-22 21:40 48.67258 9.65322 8735 ft 295 kts 276°
2026-04-22 21:40 48.67451 9.62223 8485 ft 295 kts 276°
2026-04-22 21:40 48.67640 9.59133 8233 ft 295 kts 276°
2026-04-22 21:41 48.67831 9.56054 7983 ft 293 kts 276°
2026-04-22 21:41 48.68022 9.52992 7734 ft 292 kts 276°
2026-04-22 21:41 48.68209 9.49938 7481 ft 291 kts 276°
2026-04-22 21:41 48.68394 9.46889 7231 ft 290 kts 276°
2026-04-22 21:42 48.68574 9.43889 6980 ft 289 kts 276°
2026-04-22 21:42 48.68752 9.40857 6724 ft 288 kts 276°
2026-04-22 21:42 48.68930 9.37805 6475 ft 287 kts 276°
2026-04-22 21:42 48.69105 9.34793 6327 ft 286 kts 276°
2026-04-22 21:43 48.69280 9.31794 6327 ft 287 kts 276°
2026-04-22 21:43 48.69459 9.28768 6328 ft 288 kts 276°
2026-04-22 21:43 48.69634 9.25783 6207 ft 288 kts 276°
2026-04-22 21:43 48.69745 9.22760 6082 ft 288 kts 273°
2026-04-22 21:44 48.69791 9.19734 6002 ft 286 kts 271°
2026-04-22 21:44 48.69811 9.16707 6006 ft 287 kts 271°
2026-04-22 21:44 48.69824 9.13690 6013 ft 287 kts 271°
2026-04-22 21:44 48.69840 9.10668 6009 ft 287 kts 271°
2026-04-22 21:45 48.69863 9.07636 6013 ft 288 kts 272°
2026-04-22 21:45 48.69892 9.04599 5891 ft 288 kts 272°
2026-04-22 21:45 48.69921 9.01667 5733 ft 276 kts 272°
2026-04-22 21:45 48.69950 8.98829 5586 ft 264 kts 272°
2026-04-22 21:46 48.69980 8.96107 5436 ft 253 kts 272°
2026-04-22 21:46 48.69990 8.93501 5283 ft 240 kts 266°
2026-04-22 21:46 48.69505 8.91223 5131 ft 223 kts 234°
2026-04-22 21:46 48.68418 8.89661 4984 ft 214 kts 204°
2026-04-22 21:47 48.67027 8.89057 4830 ft 205 kts 176°
2026-04-22 21:47 48.65659 8.89455 4675 ft 198 kts 149°
2026-04-22 21:47 48.64616 8.90736 4526 ft 191 kts 122°
2026-04-22 21:47 48.64106 8.92518 4411 ft 178 kts 97°
2026-04-22 21:48 48.63955 8.94315 4269 ft 171 kts 93°
2026-04-22 21:48 48.64069 8.96072 4114 ft 167 kts 77°
2026-04-22 21:48 48.64347 8.97783 4035 ft 167 kts 75°
2026-04-22 21:48 48.64654 8.99474 3967 ft 167 kts 74°
2026-04-22 21:49 48.64972 9.01162 3822 ft 167 kts 74°
2026-04-22 21:49 48.65295 9.02854 3621 ft 167 kts 74°
2026-04-22 21:49 48.65614 9.04522 3413 ft 167 kts 73°
2026-04-22 21:49 48.65940 9.06227 3196 ft 167 kts 74°
2026-04-22 21:50 48.66264 9.07915 2971 ft 167 kts 73°
2026-04-22 21:50 48.66588 9.09611 2746 ft 169 kts 73°
2026-04-22 21:50 48.66896 9.11220 2523 ft 153 kts 73°
2026-04-22 21:50 48.67187 9.12744 2330 ft 145 kts 74°
2026-04-22 21:51 48.67460 9.14175 2142 ft 142 kts 73°
2026-04-22 21:51 48.67733 9.15607 1957 ft 141 kts 73°
2026-04-22 21:51 48.68006 9.17031 1773 ft 140 kts 73°
2026-04-22 21:52 48.68541 9.19863 1402 ft 140 kts 73°
2026-04-22 21:52 48.68805 9.21267 1267 ft 134 kts 74°
2026-04-22 21:52 48.69031 9.22427 1229 ft 92 kts 73°
2026-04-22 21:52 48.69175 9.23184 1213 ft 56 kts 74°
2026-04-22 21:53 48.69325 9.23615 1204 ft 30 kts 43°
2026-04-22 21:53 48.69407 9.23728 1206 ft 4 kts 30°
2026-04-22 21:53 48.69448 9.23744 1207 ft 12 kts
2026-04-22 21:53 48.69509 9.23698 1210 ft 8 kts 306°
2026-04-22 21:54 48.69511 9.23577 1214 ft 17 kts 252°
2026-04-22 21:54 48.69479 9.23413 1217 ft 15 kts 254°
2026-04-22 21:54 48.69452 9.23269 1220 ft 13 kts 254°
2026-04-22 21:54 48.69430 9.23153 1222 ft 11 kts 254°
2026-04-22 21:55 48.69396 9.22974 1226 ft 24 kts 255°
2026-04-22 21:55 48.69349 9.22728 1231 ft 24 kts 254°
2026-04-22 21:55 48.69305 9.22496 1247 ft 22 kts 253°
2026-04-22 21:55 48.69263 9.22279 1248 ft 21 kts 254°
2026-04-22 21:56 48.69225 9.22077 1246 ft 19 kts 255°
2026-04-22 21:56 48.69190 9.21886 1259 ft 18 kts 255°
2026-04-22 21:56 48.69155 9.21703 1254 ft 17 kts 254°
2026-04-22 21:56 48.69122 9.21531 1262 ft 17 kts 254°
2026-04-22 21:57 48.69091 9.21368 1269 ft 16 kts 253°
2026-04-22 21:57 48.69062 9.21220 1272 ft 14 kts 253°
2026-04-22 21:57 48.69038 9.21087 1269 ft 14 kts 255°
2026-04-22 21:57 48.68997 9.20875 1274 ft 23 kts 253°
2026-04-22 21:58 48.68953 9.20650 1279 ft 22 kts 253°
2026-04-22 21:58 48.68915 9.20435 1286 ft 20 kts 254°
2026-04-22 21:58 48.68876 9.20234 1290 ft 19 kts 253°
2026-04-22 21:58 48.68837 9.20044 1294 ft 19 kts 248°
2026-04-22 21:59 48.68856 9.19892 1300 ft 14 kts 328°
2026-04-22 21:59 48.68885 9.19792 1305 ft 9 kts 259°
2026-04-22 21:59 48.68866 9.19689 1308 ft 10 kts 254°
2026-04-22 21:59 48.68859 9.19614 1310 ft 5 kts 312°
2026-04-22 22:00 48.68890 9.19596 1312 ft 2 kts 344°
2026-04-22 22:00 48.68914 9.19585 1314 ft 4 kts 344°
2026-04-22 22:00 48.68922 9.19582 1314 ft 1 kts 344°
2026-04-22 22:00 48.68924 9.19581 1314 ft 0 kts 344°